DKH1105 ZSPD-ZSAM

Flight info

Callsign DKH1105
Flight time 1h 31m
Altitude 25600
Route HSN W13 BEGMO W117 DST B221 LJG A470 ENVEN
Aircraft A321/M-SDE2E3FGILRWXY/LB2

Departure

Time 2026-05-04 12:15
Airport Shanghai Pudong International Airport (ZSPD)

Arrival

Time 2026-05-04 13:46
Airport Xiamen Gaoqi International Airport (ZSAM)
Time Latitude Longitude Altitude Speed Heading
2026-05-04 11:45 31.14753 121.80769 25 ft 0 kts 72°
2026-05-04 12:05 31.14751 121.80764 24 ft 2 kts 72°
2026-05-04 12:06 31.14746 121.80743 24 ft 3 kts 78°
2026-05-04 12:06 31.14743 121.80720 24 ft 3 kts 87°
2026-05-04 12:06 31.14743 121.80696 24 ft 3 kts 104°
2026-05-04 12:06 31.14750 121.80677 24 ft 3 kts 143°
2026-05-04 12:07 31.14757 121.80672 24 ft 0 kts 162°
2026-05-04 12:08 31.14756 121.80673 24 ft 1 kts 162°
2026-05-04 12:09 31.14745 121.80677 24 ft 3 kts 162°
2026-05-04 12:09 31.14716 121.80688 24 ft 6 kts 162°
2026-05-04 12:09 31.14665 121.80707 24 ft 9 kts 162°
2026-05-04 12:09 31.14596 121.80734 24 ft 12 kts 162°
2026-05-04 12:10 31.14509 121.80767 24 ft 14 kts 162°
2026-05-04 12:10 31.14449 121.80810 24 ft 11 kts 111°
2026-05-04 12:10 31.14464 121.80905 24 ft 13 kts 72°
2026-05-04 12:10 31.14495 121.81017 24 ft 16 kts 72°
2026-05-04 12:11 31.14531 121.81149 24 ft 18 kts 72°
2026-05-04 12:11 31.14568 121.81279 24 ft 15 kts 71°
2026-05-04 12:11 31.14597 121.81381 24 ft 11 kts 66°
2026-05-04 12:11 31.14669 121.81406 24 ft 13 kts 343°
2026-05-04 12:12 31.14766 121.81369 24 ft 16 kts 342°
2026-05-04 12:12 31.14883 121.81325 24 ft 19 kts 342°
2026-05-04 12:12 31.15018 121.81274 24 ft 22 kts 342°
2026-05-04 12:12 31.15169 121.81217 24 ft 24 kts 342°
2026-05-04 12:13 31.15321 121.81160 24 ft 21 kts 342°
2026-05-04 12:14 31.15536 121.81299 25 ft 59 kts 160°
2026-05-04 12:15 31.14900 121.81542 25 ft 131 kts 161°
2026-05-04 12:15 31.13887 121.81919 273 ft 160 kts 160°
2026-05-04 12:15 31.12813 121.82323 938 ft 168 kts 160°
2026-05-04 12:15 31.11671 121.82759 1580 ft 177 kts 160°
2026-05-04 12:16 31.10444 121.83235 2044 ft 193 kts 160°
2026-05-04 12:16 31.09213 121.83989 2414 ft 210 kts 145°
2026-05-04 12:16 31.07978 121.85051 2763 ft 231 kts 142°
2026-05-04 12:16 31.06647 121.86223 3211 ft 246 kts 144°
2026-05-04 12:17 31.05234 121.87394 3882 ft 252 kts 146°
2026-05-04 12:17 31.03780 121.88562 4604 ft 256 kts 146°
2026-05-04 12:17 31.02313 121.89764 5317 ft 260 kts 146°
2026-05-04 12:17 31.00860 121.91048 5981 ft 266 kts 141°
2026-05-04 12:18 30.99461 121.92491 6580 ft 273 kts 138°
2026-05-04 12:18 30.98061 121.94020 7064 ft 277 kts 137°
2026-05-04 12:18 30.96591 121.95488 7739 ft 280 kts 148°
2026-05-04 12:18 30.94828 121.96446 8404 ft 282 kts 162°
2026-05-04 12:19 30.92943 121.97126 9028 ft 286 kts 165°
2026-05-04 12:19 30.91012 121.97788 9657 ft 291 kts 164°
2026-05-04 12:19 30.89075 121.98524 10253 ft 297 kts 162°
2026-05-04 12:19 30.87069 121.99346 10578 ft 315 kts 161°
2026-05-04 12:20 30.84946 122.00218 10796 ft 335 kts 162°
2026-05-04 12:20 30.82702 122.01119 11004 ft 354 kts 162°
2026-05-04 12:20 30.80287 122.02072 11227 ft 371 kts 162°
2026-05-04 12:20 30.77784 122.03054 11455 ft 387 kts 162°
2026-05-04 12:21 30.75226 122.04062 11837 ft 397 kts 162°
2026-05-04 12:21 30.72601 122.05100 12492 ft 398 kts 162°
2026-05-04 12:21 30.69982 122.06140 13168 ft 399 kts 162°
2026-05-04 12:21 30.67343 122.07192 13763 ft 402 kts 163°
2026-05-04 12:22 30.64686 122.08250 14343 ft 405 kts 163°
2026-05-04 12:22 30.62014 122.09311 14914 ft 407 kts 163°
2026-05-04 12:22 30.59326 122.10371 15469 ft 410 kts 164°
2026-05-04 12:22 30.56609 122.11439 16012 ft 413 kts 165°
2026-05-04 12:23 30.53877 122.12513 16542 ft 416 kts 165°
2026-05-04 12:23 30.51131 122.13593 17061 ft 419 kts 165°
2026-05-04 12:23 30.48361 122.14684 17582 ft 421 kts 166°
2026-05-04 12:23 30.45581 122.15779 18082 ft 423 kts 166°
2026-05-04 12:24 30.42785 122.16881 18570 ft 426 kts 166°
2026-05-04 12:24 30.39979 122.17990 19035 ft 429 kts 166°
2026-05-04 12:24 30.37144 122.19108 19491 ft 431 kts 167°
2026-05-04 12:24 30.34297 122.20227 19941 ft 434 kts 167°
2026-05-04 12:25 30.31423 122.21353 20370 ft 437 kts 167°
2026-05-04 12:25 30.28529 122.22485 20734 ft 441 kts 167°
2026-05-04 12:25 30.25631 122.23620 20813 ft 440 kts 167°
2026-05-04 12:25 30.22738 122.24756 20812 ft 440 kts 167°
2026-05-04 12:26 30.19843 122.25894 20821 ft 440 kts 167°
2026-05-04 12:26 30.16935 122.27032 20824 ft 440 kts 167°
2026-05-04 12:26 30.14038 122.28166 20822 ft 440 kts 167°
2026-05-04 12:26 30.11141 122.29302 20818 ft 440 kts 167°
2026-05-04 12:27 30.08249 122.30433 20828 ft 440 kts 167°
2026-05-04 12:27 30.05349 122.31566 20824 ft 440 kts 167°
2026-05-04 12:27 30.02447 122.32696 20813 ft 439 kts 167°
2026-05-04 12:27 29.99587 122.33812 20815 ft 440 kts 167°
2026-05-04 12:28 29.96692 122.34941 20814 ft 439 kts 167°
2026-05-04 12:28 29.93796 122.36054 20965 ft 440 kts 169°
2026-05-04 12:28 29.90796 122.36907 21361 ft 438 kts 174°
2026-05-04 12:28 29.87858 122.37621 21785 ft 439 kts 175°
2026-05-04 12:29 29.84853 122.38304 22184 ft 440 kts 176°
2026-05-04 12:29 29.81844 122.38977 22571 ft 442 kts 176°
2026-05-04 12:29 29.78810 122.39668 22945 ft 445 kts 176°
2026-05-04 12:29 29.75771 122.40380 23316 ft 447 kts 175°
2026-05-04 12:30 29.72719 122.41102 23680 ft 449 kts 176°
2026-05-04 12:30 29.69653 122.41826 24033 ft 451 kts 176°
2026-05-04 12:30 29.66572 122.42546 24364 ft 453 kts 176°
2026-05-04 12:30 29.63476 122.43265 24692 ft 454 kts 176°
2026-05-04 12:31 29.60381 122.43982 25100 ft 454 kts 177°
2026-05-04 12:31 29.57297 122.44698 25575 ft 451 kts 177°
2026-05-04 12:31 29.54217 122.45416 26016 ft 450 kts 178°
2026-05-04 12:31 29.51159 122.46126 26443 ft 449 kts 178°
2026-05-04 12:32 29.48105 122.46837 26910 ft 446 kts 178°
2026-05-04 12:32 29.42048 122.48240 27687 ft 444 kts 179°
2026-05-04 12:32 29.39032 122.48938 27730 ft 441 kts 179°
2026-05-04 12:33 29.36027 122.49634 27723 ft 440 kts 179°
2026-05-04 12:33 29.33028 122.50329 27725 ft 440 kts 179°
2026-05-04 12:33 29.30024 122.51023 27726 ft 440 kts 179°
2026-05-04 12:33 29.27020 122.51714 27726 ft 440 kts 179°
2026-05-04 12:34 29.24015 122.52377 27714 ft 437 kts 182°
2026-05-04 12:34 29.21052 122.52603 27711 ft 420 kts 192°
2026-05-04 12:34 29.19151 122.52370 27714 ft 409 kts 200°
2026-05-04 12:34 29.16491 122.51429 27723 ft 394 kts 212°
2026-05-04 12:35 29.14070 122.50018 27753 ft 389 kts 216°
2026-05-04 12:35 29.10897 122.48011 27769 ft 389 kts 217°
2026-05-04 12:35 29.09323 122.47027 27762 ft 390 kts 216°
2026-05-04 12:35 29.06132 122.45113 27765 ft 391 kts 215°
2026-05-04 12:36 29.04495 122.44163 27763 ft 391 kts 214°
2026-05-04 12:36 29.02061 122.42762 27763 ft 391 kts 214°
2026-05-04 12:36 28.98863 122.40903 27767 ft 389 kts 215°
2026-05-04 12:36 28.97241 122.39949 27761 ft 388 kts 215°
2026-05-04 12:37 28.94076 122.38078 27737 ft 387 kts 215°
2026-05-04 12:37 28.92454 122.37118 27721 ft 387 kts 215°
2026-05-04 12:37 28.89293 122.35256 27692 ft 386 kts 215°
2026-05-04 12:37 28.87676 122.34309 27678 ft 387 kts 215°
2026-05-04 12:38 28.85282 122.32910 27679 ft 386 kts 215°
2026-05-04 12:38 28.82891 122.31510 27675 ft 386 kts 215°
2026-05-04 12:38 28.80497 122.30106 27676 ft 387 kts 215°
2026-05-04 12:38 28.78103 122.28701 27678 ft 387 kts 215°
2026-05-04 12:39 28.75707 122.27297 27680 ft 388 kts 215°
2026-05-04 12:39 28.73332 122.25907 27680 ft 389 kts 215°
2026-05-04 12:39 28.70892 122.24481 27690 ft 389 kts 215°
2026-05-04 12:39 28.68485 122.23076 27718 ft 389 kts 215°
2026-05-04 12:40 28.66078 122.21670 27746 ft 389 kts 215°
2026-05-04 12:40 28.63670 122.20263 27772 ft 388 kts 215°
2026-05-04 12:40 28.61267 122.18860 27768 ft 388 kts 215°
2026-05-04 12:40 28.58871 122.17462 27767 ft 387 kts 215°
2026-05-04 12:41 28.56480 122.16069 27767 ft 386 kts 215°
2026-05-04 12:41 28.54122 122.14696 27764 ft 385 kts 215°
2026-05-04 12:41 28.51739 122.13309 27745 ft 385 kts 215°
2026-05-04 12:41 28.49358 122.11922 27722 ft 384 kts 215°
2026-05-04 12:42 28.46981 122.10536 27700 ft 384 kts 215°
2026-05-04 12:42 28.44601 122.09151 27679 ft 384 kts 215°
2026-05-04 12:42 28.42224 122.07771 27684 ft 384 kts 215°
2026-05-04 12:42 28.39845 122.06390 27685 ft 384 kts 215°
2026-05-04 12:43 28.37464 122.05007 27684 ft 385 kts 215°
2026-05-04 12:43 28.35082 122.03622 27684 ft 385 kts 215°
2026-05-04 12:43 28.32690 122.02236 27684 ft 386 kts 215°
2026-05-04 12:43 28.30297 122.00851 27703 ft 386 kts 215°
2026-05-04 12:44 28.27908 121.99469 27731 ft 386 kts 215°
2026-05-04 12:44 28.25519 121.98084 27759 ft 385 kts 215°
2026-05-04 12:44 28.23134 121.96702 27777 ft 385 kts 215°
2026-05-04 12:44 28.20748 121.95321 27776 ft 385 kts 215°
2026-05-04 12:45 28.18364 121.93945 27774 ft 384 kts 215°
2026-05-04 12:45 28.15988 121.92571 27775 ft 383 kts 215°
2026-05-04 12:45 28.13616 121.91200 27772 ft 383 kts 215°
2026-05-04 12:45 28.11242 121.89830 27765 ft 382 kts 215°
2026-05-04 12:46 28.08869 121.88460 27750 ft 382 kts 215°
2026-05-04 12:46 28.06503 121.87093 27729 ft 382 kts 215°
2026-05-04 12:46 28.04190 121.85654 27698 ft 377 kts 220°
2026-05-04 12:46 28.02143 121.83868 27691 ft 368 kts 229°
2026-05-04 12:47 28.00479 121.81698 27687 ft 363 kts 238°
2026-05-04 12:47 27.99262 121.79214 27687 ft 361 kts 248°
2026-05-04 12:47 27.98495 121.76517 27691 ft 361 kts 255°
2026-05-04 12:47 27.97964 121.73769 27682 ft 363 kts 257°
2026-05-04 12:48 27.97451 121.70970 27685 ft 364 kts 257°
2026-05-04 12:48 27.96908 121.68130 27687 ft 365 kts 256°
2026-05-04 12:48 27.96346 121.65363 27697 ft 366 kts 256°
2026-05-04 12:48 27.95759 121.62571 27723 ft 366 kts 255°
2026-05-04 12:49 27.95172 121.59773 27755 ft 366 kts 255°
2026-05-04 12:49 27.94591 121.56965 27778 ft 366 kts 256°
2026-05-04 12:49 27.94017 121.54159 27774 ft 366 kts 256°
2026-05-04 12:49 27.93444 121.51358 27776 ft 366 kts 256°
2026-05-04 12:50 27.92868 121.48554 27774 ft 365 kts 256°
2026-05-04 12:50 27.92291 121.45758 27771 ft 365 kts 256°
2026-05-04 12:50 27.91713 121.42965 27750 ft 365 kts 256°
2026-05-04 12:50 27.91135 121.40175 27728 ft 365 kts 256°
2026-05-04 12:51 27.90558 121.37388 27711 ft 364 kts 256°
2026-05-04 12:51 27.89981 121.34599 27689 ft 365 kts 256°
2026-05-04 12:51 27.89401 121.31804 27693 ft 365 kts 256°
2026-05-04 12:51 27.88822 121.29012 27693 ft 365 kts 256°
2026-05-04 12:52 27.88240 121.26210 27694 ft 366 kts 256°
2026-05-04 12:52 27.87655 121.23404 27694 ft 367 kts 256°
2026-05-04 12:52 27.87071 121.20591 27694 ft 368 kts 256°
2026-05-04 12:52 27.86484 121.17768 27684 ft 370 kts 256°
2026-05-04 12:53 27.85898 121.14943 27702 ft 370 kts 256°
2026-05-04 12:53 27.85309 121.12111 27699 ft 371 kts 256°
2026-05-04 12:53 27.84717 121.09265 27720 ft 371 kts 256°
2026-05-04 12:53 27.84131 121.06453 27748 ft 372 kts 256°
2026-05-04 12:54 27.83611 121.03967 27772 ft 372 kts 256°
2026-05-04 12:54 27.83010 121.01089 27778 ft 372 kts 256°
2026-05-04 12:54 27.82415 120.98243 27777 ft 372 kts 256°
2026-05-04 12:54 27.81821 120.95406 27777 ft 372 kts 256°
2026-05-04 12:55 27.81227 120.92560 27778 ft 372 kts 256°
2026-05-04 12:55 27.80631 120.89720 27777 ft 372 kts 256°
2026-05-04 12:55 27.80040 120.86919 27777 ft 372 kts 256°
2026-05-04 12:55 27.79442 120.84083 27778 ft 371 kts 256°
2026-05-04 12:56 27.78843 120.81237 27762 ft 372 kts 256°
2026-05-04 12:56 27.78246 120.78404 27745 ft 372 kts 256°
2026-05-04 12:56 27.77647 120.75565 27723 ft 372 kts 256°
2026-05-04 12:56 27.77046 120.72718 27701 ft 372 kts 256°
2026-05-04 12:57 27.76445 120.69875 27693 ft 372 kts 256°
2026-05-04 12:57 27.75743 120.67068 27689 ft 373 kts 250°
2026-05-04 12:57 27.74645 120.64415 27690 ft 375 kts 242°
2026-05-04 12:57 27.73079 120.62042 27692 ft 380 kts 231°
2026-05-04 12:58 27.71070 120.60067 27692 ft 388 kts 221°
2026-05-04 12:58 27.68786 120.58422 27702 ft 392 kts 218°
2026-05-04 12:58 27.66446 120.56842 27719 ft 392 kts 218°
2026-05-04 12:58 27.64109 120.55253 27747 ft 392 kts 218°
2026-05-04 12:59 27.61800 120.53632 27780 ft 391 kts 219°
2026-05-04 12:59 27.59506 120.51980 27787 ft 391 kts 219°
2026-05-04 12:59 27.57221 120.50322 27787 ft 391 kts 219°
2026-05-04 12:59 27.54932 120.48673 27785 ft 391 kts 219°
2026-05-04 13:00 27.52634 120.47034 27785 ft 390 kts 219°
2026-05-04 13:00 27.50343 120.45409 27786 ft 390 kts 219°
2026-05-04 13:00 27.48046 120.43781 27784 ft 389 kts 219°
2026-05-04 13:00 27.45755 120.42156 27770 ft 389 kts 219°
2026-05-04 13:01 27.43474 120.40531 27751 ft 388 kts 219°
2026-05-04 13:01 27.41194 120.38906 27733 ft 388 kts 219°
2026-05-04 13:01 27.38910 120.37279 27711 ft 388 kts 219°
2026-05-04 13:01 27.36628 120.35657 27700 ft 388 kts 219°
2026-05-04 13:02 27.34366 120.34055 27701 ft 389 kts 218°
2026-05-04 13:02 27.32050 120.32419 27703 ft 389 kts 218°
2026-05-04 13:02 27.29755 120.30795 27706 ft 389 kts 218°
2026-05-04 13:02 27.27462 120.29173 27704 ft 390 kts 218°
2026-05-04 13:03 27.25192 120.27567 27707 ft 391 kts 218°
2026-05-04 13:03 27.22888 120.25940 27708 ft 391 kts 218°
2026-05-04 13:03 27.20584 120.24316 27729 ft 392 kts 218°
2026-05-04 13:03 27.18278 120.22691 27760 ft 391 kts 218°
2026-05-04 13:04 27.15969 120.21063 27788 ft 391 kts 218°
2026-05-04 13:04 27.13667 120.19440 27796 ft 391 kts 218°
2026-05-04 13:04 27.11360 120.17811 27798 ft 391 kts 218°
2026-05-04 13:04 27.09069 120.16185 27796 ft 390 kts 218°
2026-05-04 13:05 27.06788 120.14557 27795 ft 389 kts 218°
2026-05-04 13:05 27.04508 120.12928 27789 ft 388 kts 218°
2026-05-04 13:05 27.02227 120.11306 27769 ft 388 kts 218°
2026-05-04 13:05 26.99945 120.09686 27746 ft 388 kts 218°
2026-05-04 13:06 26.97666 120.08069 27726 ft 388 kts 218°
2026-05-04 13:06 26.95383 120.06449 27708 ft 388 kts 218°
2026-05-04 13:06 26.93108 120.04834 27712 ft 388 kts 218°
2026-05-04 13:06 26.90827 120.03218 27714 ft 389 kts 218°
2026-05-04 13:07 26.88534 120.01598 27715 ft 389 kts 218°
2026-05-04 13:07 26.86252 119.99985 27715 ft 390 kts 218°
2026-05-04 13:07 26.83947 119.98355 27716 ft 391 kts 218°
2026-05-04 13:07 26.81646 119.96728 27719 ft 392 kts 218°
2026-05-04 13:08 26.79343 119.95102 27721 ft 392 kts 218°
2026-05-04 13:08 26.77027 119.93469 27746 ft 393 kts 218°
2026-05-04 13:08 26.74720 119.91846 27774 ft 393 kts 218°
2026-05-04 13:08 26.72402 119.90212 27802 ft 393 kts 218°
2026-05-04 13:09 26.70093 119.88584 27805 ft 393 kts 218°
2026-05-04 13:09 26.67787 119.86961 27807 ft 392 kts 218°
2026-05-04 13:09 26.65505 119.85354 27807 ft 392 kts 218°
2026-05-04 13:09 26.63207 119.83736 27807 ft 391 kts 218°
2026-05-04 13:10 26.60905 119.82118 27808 ft 390 kts 218°
2026-05-04 13:10 26.58615 119.80509 27791 ft 389 kts 217°
2026-05-04 13:10 26.56318 119.78896 27768 ft 389 kts 217°
2026-05-04 13:10 26.54032 119.77292 27746 ft 389 kts 217°
2026-05-04 13:11 26.51743 119.75686 27729 ft 388 kts 217°
2026-05-04 13:11 26.49453 119.74078 27724 ft 388 kts 217°
2026-05-04 13:11 26.47167 119.72474 27722 ft 389 kts 217°
2026-05-04 13:11 26.44876 119.70866 27721 ft 389 kts 217°
2026-05-04 13:12 26.42580 119.69255 27722 ft 390 kts 217°
2026-05-04 13:12 26.40284 119.67643 27728 ft 390 kts 217°
2026-05-04 13:12 26.37984 119.66030 27745 ft 391 kts 217°
2026-05-04 13:12 26.35683 119.64420 27770 ft 391 kts 217°
2026-05-04 13:13 26.33381 119.62811 27798 ft 390 kts 217°
2026-05-04 13:13 26.31083 119.61204 27821 ft 390 kts 217°
2026-05-04 13:13 26.28785 119.59597 27810 ft 391 kts 217°
2026-05-04 13:13 26.26482 119.57987 27815 ft 391 kts 217°
2026-05-04 13:14 26.24183 119.56380 27816 ft 391 kts 217°
2026-05-04 13:14 26.21806 119.54889 27809 ft 395 kts 211°
2026-05-04 13:14 26.19215 119.53793 27813 ft 401 kts 205°
2026-05-04 13:14 26.16542 119.52875 27811 ft 402 kts 203°
2026-05-04 13:15 26.13851 119.52017 27808 ft 403 kts 203°
2026-05-04 13:15 26.11160 119.51156 27814 ft 402 kts 203°
2026-05-04 13:15 26.08476 119.50260 27815 ft 402 kts 204°
2026-05-04 13:15 26.05843 119.49349 27815 ft 401 kts 204°
2026-05-04 13:16 26.03148 119.48409 27815 ft 402 kts 204°
2026-05-04 13:16 26.00473 119.47486 27814 ft 402 kts 204°
2026-05-04 13:16 25.97812 119.46580 27814 ft 402 kts 204°
2026-05-04 13:16 25.95133 119.45675 27813 ft 401 kts 203°
2026-05-04 13:17 25.92494 119.44784 27803 ft 401 kts 204°
2026-05-04 13:17 25.89791 119.43865 27782 ft 401 kts 204°
2026-05-04 13:17 25.87155 119.42968 27760 ft 401 kts 204°
2026-05-04 13:17 25.84497 119.42065 27730 ft 398 kts 204°
2026-05-04 13:18 25.81878 119.41181 27611 ft 387 kts 204°
2026-05-04 13:18 25.79332 119.40325 27262 ft 379 kts 204°
2026-05-04 13:18 25.76829 119.39454 26694 ft 375 kts 206°
2026-05-04 13:18 25.74474 119.38292 26098 ft 366 kts 215°
2026-05-04 13:19 25.72405 119.36701 25501 ft 359 kts 225°
2026-05-04 13:19 25.71221 119.35440 25113 ft 355 kts 230°
2026-05-04 13:19 25.68989 119.32750 24330 ft 353 kts 232°
2026-05-04 13:19 25.67347 119.30723 23733 ft 353 kts 231°
2026-05-04 13:20 25.65691 119.28722 23170 ft 352 kts 231°
2026-05-04 13:20 25.64016 119.26753 22633 ft 350 kts 230°
2026-05-04 13:20 25.62343 119.24808 22112 ft 348 kts 230°
2026-05-04 13:20 25.60670 119.22862 21863 ft 349 kts 230°
2026-05-04 13:21 25.58998 119.20904 21876 ft 351 kts 230°
2026-05-04 13:21 25.57325 119.18937 21877 ft 351 kts 230°
2026-05-04 13:21 25.55646 119.16967 21874 ft 351 kts 230°
2026-05-04 13:21 25.53966 119.14999 21879 ft 351 kts 230°
2026-05-04 13:22 25.52289 119.13037 21881 ft 352 kts 230°
2026-05-04 13:22 25.50608 119.11069 21875 ft 352 kts 230°
2026-05-04 13:22 25.48922 119.09095 21874 ft 352 kts 230°
2026-05-04 13:22 25.47242 119.07130 21871 ft 352 kts 230°
2026-05-04 13:23 25.45552 119.05157 21873 ft 353 kts 230°
2026-05-04 13:23 25.43892 119.03216 21867 ft 352 kts 230°
2026-05-04 13:23 25.42191 119.01224 21865 ft 352 kts 230°
2026-05-04 13:23 25.40522 118.99272 21863 ft 353 kts 230°
2026-05-04 13:24 25.38835 118.97305 21863 ft 353 kts 230°
2026-05-04 13:24 25.37145 118.95337 21863 ft 353 kts 230°
2026-05-04 13:24 25.35466 118.93379 21721 ft 348 kts 230°
2026-05-04 13:25 25.32203 118.89497 20686 ft 343 kts 231°
2026-05-04 13:25 25.30599 118.87548 20155 ft 341 kts 231°
2026-05-04 13:25 25.29524 118.86240 19801 ft 340 kts 231°
2026-05-04 13:25 25.27429 118.83699 19112 ft 337 kts 231°
2026-05-04 13:26 25.25849 118.81790 18597 ft 334 kts 231°
2026-05-04 13:26 25.24814 118.80540 18259 ft 333 kts 231°
2026-05-04 13:26 25.22735 118.78030 17573 ft 330 kts 231°
2026-05-04 13:26 25.21709 118.76789 17233 ft 329 kts 231°
2026-05-04 13:27 25.19654 118.74306 16547 ft 326 kts 231°
2026-05-04 13:27 25.18648 118.73094 16206 ft 325 kts 231°
2026-05-04 13:27 25.17118 118.71248 15858 ft 325 kts 231°
2026-05-04 13:27 25.15590 118.69404 15842 ft 326 kts 231°
2026-05-04 13:28 25.14056 118.67554 15844 ft 326 kts 231°
2026-05-04 13:28 25.12520 118.65703 15848 ft 327 kts 231°
2026-05-04 13:28 25.10992 118.63860 15847 ft 326 kts 231°
2026-05-04 13:28 25.09453 118.62011 15847 ft 326 kts 230°
2026-05-04 13:29 25.07904 118.60201 15767 ft 323 kts 230°
2026-05-04 13:29 25.06353 118.58419 15361 ft 320 kts 229°
2026-05-04 13:29 25.04807 118.56654 14819 ft 320 kts 229°
2026-05-04 13:29 25.03267 118.54894 14308 ft 318 kts 229°
2026-05-04 13:30 25.01738 118.53143 13811 ft 316 kts 229°
2026-05-04 13:30 25.00218 118.51396 13314 ft 314 kts 229°
2026-05-04 13:30 24.98707 118.49661 12816 ft 313 kts 229°
2026-05-04 13:30 24.97208 118.47940 12321 ft 311 kts 229°
2026-05-04 13:31 24.95725 118.46239 11974 ft 312 kts 229°
2026-05-04 13:31 24.94224 118.44518 11936 ft 313 kts 229°
2026-05-04 13:31 24.92710 118.42789 11941 ft 312 kts 229°
2026-05-04 13:31 24.91202 118.41067 11942 ft 312 kts 229°
2026-05-04 13:32 24.89697 118.39343 11943 ft 312 kts 229°
2026-05-04 13:32 24.88193 118.37621 11935 ft 312 kts 229°
2026-05-04 13:32 24.86688 118.35902 11932 ft 310 kts 229°
2026-05-04 13:32 24.85214 118.34221 11848 ft 300 kts 229°
2026-05-04 13:33 24.83798 118.32608 11724 ft 287 kts 229°
2026-05-04 13:33 24.82441 118.31060 11602 ft 275 kts 229°
2026-05-04 13:33 24.81131 118.29555 11331 ft 269 kts 229°
2026-05-04 13:33 24.79840 118.28068 10933 ft 269 kts 229°
2026-05-04 13:34 24.78542 118.26584 10501 ft 270 kts 228°
2026-05-04 13:34 24.77235 118.25098 10076 ft 271 kts 228°
2026-05-04 13:34 24.75925 118.23606 9648 ft 272 kts 228°
2026-05-04 13:34 24.74612 118.22109 9229 ft 272 kts 227°
2026-05-04 13:35 24.73296 118.20606 8804 ft 273 kts 227°
2026-05-04 13:35 24.70643 118.17592 8013 ft 274 kts 227°
2026-05-04 13:35 24.69317 118.16086 7821 ft 274 kts 227°
2026-05-04 13:36 24.67995 118.14580 7511 ft 272 kts 227°
2026-05-04 13:36 24.66678 118.13078 7104 ft 273 kts 227°
2026-05-04 13:36 24.65357 118.11571 6708 ft 274 kts 227°
2026-05-04 13:36 24.64035 118.10067 6314 ft 274 kts 227°
2026-05-04 13:37 24.62726 118.08584 5971 ft 273 kts 227°
2026-05-04 13:37 24.61439 118.07111 5885 ft 260 kts 227°
2026-05-04 13:37 24.60237 118.05681 5767 ft 250 kts 228°
2026-05-04 13:37 24.59051 118.04299 5467 ft 248 kts 226°
2026-05-04 13:38 24.57825 118.02924 5103 ft 249 kts 226°
2026-05-04 13:38 24.56625 118.01577 4742 ft 250 kts 226°
2026-05-04 13:38 24.55430 118.00185 4381 ft 252 kts 228°
2026-05-04 13:38 24.54267 117.98746 4043 ft 252 kts 229°
2026-05-04 13:39 24.53095 117.97300 3917 ft 254 kts 228°
2026-05-04 13:39 24.51916 117.95860 3906 ft 252 kts 228°
2026-05-04 13:39 24.50750 117.94433 3669 ft 251 kts 228°
2026-05-04 13:39 24.49581 117.92998 3285 ft 254 kts 228°
2026-05-04 13:40 24.48282 117.91696 2971 ft 251 kts 207°
2026-05-04 13:40 24.46703 117.91144 2951 ft 230 kts 177°
2026-05-04 13:40 24.45202 117.91440 2973 ft 213 kts 146°
2026-05-04 13:40 24.44057 117.92384 3000 ft 204 kts 127°
2026-05-04 13:41 24.43272 117.93623 3000 ft 195 kts 109°
2026-05-04 13:41 24.42783 117.94990 2996 ft 189 kts 95°
2026-05-04 13:41 24.42838 117.96384 2992 ft 181 kts 66°
2026-05-04 13:42 24.44213 117.98492 2965 ft 158 kts 50°
2026-05-04 13:42 24.44867 117.99395 2824 ft 147 kts 52°
2026-05-04 13:42 24.45489 118.00277 2617 ft 145 kts 51°
2026-05-04 13:42 24.46114 118.01150 2417 ft 145 kts 51°
2026-05-04 13:43 24.46738 118.02022 2226 ft 145 kts 51°
2026-05-04 13:43 24.47358 118.02888 2029 ft 144 kts 51°
2026-05-04 13:43 24.47977 118.03754 1837 ft 144 kts 51°
2026-05-04 13:43 24.48593 118.04616 1656 ft 144 kts 51°
2026-05-04 13:44 24.49210 118.05474 1450 ft 143 kts 51°
2026-05-04 13:44 24.49831 118.06335 1159 ft 142 kts 51°
2026-05-04 13:44 24.50420 118.07174 886 ft 141 kts 51°
2026-05-04 13:44 24.51023 118.08022 741 ft 141 kts 50°
2026-05-04 13:45 24.51634 118.08868 619 ft 141 kts 50°
2026-05-04 13:45 24.52235 118.09716 454 ft 140 kts 51°
2026-05-04 13:45 24.52834 118.10563 330 ft 141 kts 51°
2026-05-04 13:45 24.53438 118.11405 125 ft 139 kts 50°
2026-05-04 13:46 24.54015 118.12198 74 ft 116 kts 51°
2026-05-04 13:46 24.54406 118.12745 74 ft 72 kts 49°
2026-05-04 13:46 24.54612 118.13035 74 ft 27 kts 54°
2026-05-04 13:46 24.54678 118.13168 73 ft 17 kts 66°
2026-05-04 13:47 24.54709 118.13273 74 ft 12 kts 81°
2026-05-04 13:47 24.54713 118.13302 74 ft 0 kts 81°
2026-05-04 13:47 24.54715 118.13316 74 ft 4 kts 81°
2026-05-04 13:48 24.54720 118.13355 74 ft 7 kts 81°
2026-05-04 13:48 24.54729 118.13420 74 ft 10 kts 81°
2026-05-04 13:48 24.54743 118.13498 74 ft 11 kts 70°
2026-05-04 13:48 24.54786 118.13574 74 ft 12 kts 53°
2026-05-04 13:49 24.54842 118.13654 74 ft 13 kts 52°
2026-05-04 13:49 24.54871 118.13728 73 ft 9 kts 109°
2026-05-04 13:49 24.54831 118.13774 74 ft 7 kts 142°
2026-05-04 13:49 24.54807 118.13828 74 ft 9 kts 88°
2026-05-04 13:50 24.54816 118.13878 74 ft 5 kts 76°
2026-05-04 13:50 24.54820 118.13895 74 ft 2 kts 75°
2026-05-04 13:50 24.54822 118.13906 74 ft 0 kts 76°